Regional Weather Roundup
Issued by NWS Sterling, VA

Home | Current Version | Previous Version | Text Only | Print | Product List | Glossary On
Versions: 1 2 3 4 5 6 7 8 9 10 11 12 13 14 15 16 17 18 19 20 21 22 23 24 25 26 27 28 29 30 31 32 33 34 35 36 37 38 39 40 41 42 43 44 45 46 47 48 49 50
804
ASUS41 KLWX 291411
RWRLWX

REGIONAL WEATHER ROUNDUP
NATIONAL WEATHER SERVICE BALTIMORE MD/WASHINGTON DC
1000 AM EDT SAT APR 29 2017

Note: "FAIR" indicates few or no clouds below 12,000 feet
with no significant weather and/or obstructions to visibility.
 TC=TEMPERATURE CELSIUS

 * =Non NWS site. Station does not report precipitation (e.g. rain,
    snow, etc.), thunder, or fog.

DCZ001-MDZ009-015-VAZ040>042-051-053>054-291500-
WASHINGTON METRO

CITY           SKY/WX    TMP DP  RH WIND       PRES   REMARKS
WASHINGTON NAT CLOUDY    79  67  66 SW8       30.11S
DULLES         CLOUDY    75  62  64 SW6       30.12R
ANDREWS AFB    PTSUNNY   78  66  67 W12       30.10S
FT BELVOIR     PTSUNNY   79  66  64 W5        30.12R
QUANTICO       PTSUNNY   74  70  87 S7        30.13F
COLLEGE PARK*  CLOUDY    76  64  67 W5        30.10R
LEESBURG*      CLOUDY    73  64  73 W8        30.14R
MANASSAS*        N/A     76  68  76 VRB5      30.13R

$$

MDZ006>007-011-014-291500-
BALTIMORE METRO

CITY           SKY/WX    TMP DP  RH WIND       PRES   REMARKS
BWI AIRPORT    CLOUDY    74  67  78 W9        30.08F
MD SCIENCE CTR   N/A     76  64  66 MISG      30.07F
MARTIN STATE   CLOUDY    75  70  83 SW5       30.08F
ANNAPOLIS      CLOUDY    78  70  76 W8G17     30.09S
FORT MEADE*    CLOUDY    73  66  78 SW8       30.11S

$$

MDZ012-015-019>023-291500-
MARYLAND EASTERN SHORE

CITY           SKY/WX    TMP DP  RH WIND       PRES   REMARKS
OCEAN CITY     CLOUDY    80  72  76 W16G22    30.11R
SALISBURY      CLOUDY    79  73  82 W17       30.12R
BAY BRIDGE AP* CLOUDY    77  68  73 W6        30.10S
CAMBRIDGE*     MOSUNNY   79  72  78 SW8G16    30.11S
EASTON*        MOSUNNY   77  68  73 W6        30.15R

$$

MDZ017>025-291500-
SOUTHERN MARYLAND

CITY           SKY/WX    TMP DP  RH WIND       PRES   REMARKS
PATUXENT RIVER CLOUDY    78  74  87 W20       30.11R
ST INIGOES     CLOUDY    78  71  79 SW9       30.12R
LEONARDTOWN*   CLOUDY    77  68  73 W12G18    30.14R

$$

MDZ003>005-291500-
NORTH CENTRAL MARYLAND

CITY           SKY/WX    TMP DP  RH WIND       PRES   REMARKS
FREDERICK*     PTSUNNY   73  68  83 SW8       30.13R
HAGERSTOWN APT CLOUDY    71  62  73 SW10      30.09R
WESTMINSTER*   CLOUDY    72  64  78 SW8       30.10R

$$

MDZ501>502-291500-
WESTERN MARYLAND

CITY           SKY/WX    TMP DP  RH WIND       PRES   REMARKS
OAKLAND*         N/A     61  57  88 SW8       30.16F
CUMBERLAND*    CLOUDY    64  61  88 S7        30.12F

$$

VAZ025>031-291500-
SHENANDOAH VALLEY

CITY           SKY/WX    TMP DP  RH WIND       PRES   REMARKS
WINCHESTER*    CLOUDY    68  59  73 S7        30.12F
FRONT ROYAL*   CLOUDY    68  63  83 SW5       30.13F
LURAY*         PTSUNNY   73  64  73 CALM      30.16F
NEW MARKET*    CLOUDY    73  60  63 NE5       30.15F
STAUNTON*      PTSUNNY   73  65  77 CALM      30.18F
WAYNESBORO*    MOSUNNY   77  66  68 SW7       30.17F

$$

WVZ021-048>050-054>055-291500-
EASTERN WEST VIRGINIA PANHANDLE

CITY           SKY/WX    TMP DP  RH WIND       PRES   REMARKS
MARTINSBURG    CLOUDY    70  60  70 S10G18    30.11R
PETERSBURG*    CLOUDY    66  64  91 CALM      30.13F

$$

VAZ036>039-050-291500-
CENTRAL FOOTHILLS

CITY           SKY/WX    TMP DP  RH WIND       PRES   REMARKS
CHARLOTTESVILL SUNNY     78  68  71 S7        30.14R
CULPEPER*      CLOUDY    79  69  70 S5        30.14S
ORANGE*        CLOUDY    73  68  83 SW6       30.15R
GORDONSVILLE*  MOSUNNY   76  69  79 SW7       30.14R
WARRENTON*     MOSUNNY   79  64  59 SW5       30.13R

$$

VAZ055>057-291500-
NORTH AND CENTRAL PIEDMONT

CITY           SKY/WX    TMP DP  RH WIND       PRES   REMARKS
FREDERICKSBRG* CLOUDY    77  70  78 W6        30.13R
STAFFORD*      CLOUDY    76  70  82 W6        30.18R

$$

NCZ024-NYZ072-PAZ021-071-VAZ022-071-291500-
OTHER REGIONAL OBSERVATIONS

CITY           SKY/WX    TMP DP  RH WIND       PRES   REMARKS
NEW YORK CITY  MOSUNNY   72  65  78 VRB3      30.05R
PHILADELPHIA   CLOUDY    74  66  76 SW7       30.06S
PITTSBURGH     CLOUDY    66  62  87 SW5       30.08R
ROANOKE        CLOUDY    75  65  70 CALM      30.19F
RICHMOND       CLOUDY    78  72  81 SW10      30.16R
RALEIGH        MOSUNNY   79  70  74 SW8       30.21R

$$

ANZ530>537-291500-
MARINE OBSERVATIONS

STATION/POSITION TIME  TEMP    WIND        PRES
                       AIR SEA DIR/SP/G
                 (UTC) (F)     (DEG/KT/KT) (MB)
THOMAS PT LIGHT  1400   72 60  130/  4/  6   N/A
BALT KEY BRIDGE  1342   74     210/  7/  9 1018.0F
COVE POINT       1342   76     280/ 13/ 19 1020.4R
LEWISETTA        1342   77 69  270/ 11/ 15 1019.9R
SOLOMONS ISLAND  1342   75 61  250/ 12/ 21   N/A
PINEY POINT      1348          340/  4/  4   N/A

$$





USA.gov is the U.S. government's official web portal to all federal, state and local government web resources and services.